Вернуться в каталог

STARLINK-5163

АктивенСвязьVLEO
NORAD 54054·PAYLOAD·🇺🇸 United States

Запущен Oct 20, 2022 с Cape Canaveral Space Force Station

Loading…

Ближайшие Пролёты (ближайшие 24 часа)

TLE

СвежийSource: CelesTrak SupGP

Эпоха: Sep 15, 2026, 03:04 UTC

1 54054C 22136D   26258.12826389 -.00010969  00000+0 -35295-3 0  2585
2 54054  53.1571 201.2806 0001144  96.1496 201.2463 15.31688360    16

Отслеживайте STARLINK-5163 в реальном времени с AllMySat

Download on the App Store